Year,Month,Day,Hour,Minute,Value (Times are PST for temperature in C)
2017,09,29,00,00,20.70
2017,09,29,00,01,20.70
2017,09,29,00,02,20.70
2017,09,29,00,03,20.70
2017,09,29,00,04,20.70
2017,09,29,00,05,20.70
2017,09,29,00,06,20.80
2017,09,29,00,07,20.80
2017,09,29,00,08,20.80
2017,09,29,00,09,20.80
2017,09,29,00,10,20.80
2017,09,29,00,11,20.80
2017,09,29,00,12,20.80
2017,09,29,00,13,20.80
2017,09,29,00,14,20.80
2017,09,29,00,15,20.80
2017,09,29,00,16,20.80
2017,09,29,00,17,20.80
2017,09,29,00,18,20.80
2017,09,29,00,19,20.80
2017,09,29,00,20,20.80
2017,09,29,00,21,20.80
2017,09,29,00,22,20.80
2017,09,29,00,23,20.80
2017,09,29,00,24,20.70
2017,09,29,00,25,20.70
2017,09,29,00,26,20.70
2017,09,29,00,27,20.70
2017,09,29,00,28,20.60
2017,09,29,00,29,20.60
2017,09,29,00,30,20.60
2017,09,29,00,31,20.60
2017,09,29,00,32,20.50
2017,09,29,00,33,20.50
2017,09,29,00,34,20.40
2017,09,29,00,35,20.40
2017,09,29,00,36,20.40
2017,09,29,00,37,20.30
2017,09,29,00,38,20.30
2017,09,29,00,39,20.20
2017,09,29,00,40,20.20
2017,09,29,00,41,20.10
2017,09,29,00,42,20.10
2017,09,29,00,43,20.10
2017,09,29,00,44,20.10
2017,09,29,00,45,20.10
2017,09,29,00,46,20.10
2017,09,29,00,47,20.10
2017,09,29,00,48,20.00
2017,09,29,00,49,20.00
2017,09,29,00,50,19.90
2017,09,29,00,51,19.90
2017,09,29,00,52,19.80
2017,09,29,00,53,19.80
2017,09,29,00,54,19.70
2017,09,29,00,55,19.60
2017,09,29,00,56,19.50
2017,09,29,00,57,19.50
2017,09,29,00,58,19.50
2017,09,29,00,59,19.40
2017,09,29,01,00,19.40
2017,09,29,01,01,19.40
2017,09,29,01,02,19.40
2017,09,29,01,03,19.40
2017,09,29,01,04,19.30
2017,09,29,01,05,19.30
2017,09,29,01,06,19.30
2017,09,29,01,07,19.20
2017,09,29,01,08,19.20
2017,09,29,01,09,19.20
2017,09,29,01,10,19.20
2017,09,29,01,11,19.20
2017,09,29,01,12,19.20
2017,09,29,01,13,19.20
2017,09,29,01,14,19.20
2017,09,29,01,15,19.20
2017,09,29,01,16,19.10
2017,09,29,01,17,19.10
2017,09,29,01,18,19.10
2017,09,29,01,19,19.10
2017,09,29,01,20,19.10
2017,09,29,01,21,19.10
2017,09,29,01,22,19.10
2017,09,29,01,23,19.10
2017,09,29,01,24,19.10
2017,09,29,01,25,19.10
2017,09,29,01,26,19.10
2017,09,29,01,27,19.10
2017,09,29,01,28,19.10
2017,09,29,01,29,19.10
2017,09,29,01,30,19.10
2017,09,29,01,31,19.00
2017,09,29,01,32,19.00
2017,09,29,01,33,18.90
2017,09,29,01,34,18.80
2017,09,29,01,35,18.80
2017,09,29,01,36,18.80
2017,09,29,01,37,18.70
2017,09,29,01,38,18.70
2017,09,29,01,39,18.70
2017,09,29,01,40,18.70
2017,09,29,01,41,18.60
2017,09,29,01,42,18.60
2017,09,29,01,43,18.60
2017,09,29,01,44,18.60
2017,09,29,01,45,18.60
2017,09,29,01,46,18.60
2017,09,29,01,47,18.60
2017,09,29,01,48,18.60
2017,09,29,01,49,18.60
2017,09,29,01,50,18.60
2017,09,29,01,51,18.60
2017,09,29,01,52,18.60
2017,09,29,01,53,18.60
2017,09,29,01,54,18.60
2017,09,29,01,55,18.60
2017,09,29,01,56,18.60
2017,09,29,01,57,18.60
2017,09,29,01,58,18.60
2017,09,29,01,59,18.60
2017,09,29,02,00,18.60
2017,09,29,02,01,18.60
2017,09,29,02,02,18.50
2017,09,29,02,03,18.50
2017,09,29,02,04,18.50
2017,09,29,02,05,18.50
2017,09,29,02,06,18.50
2017,09,29,02,07,18.50
2017,09,29,02,08,18.50
2017,09,29,02,09,18.60
2017,09,29,02,10,18.50
2017,09,29,02,11,18.50
2017,09,29,02,12,18.50
2017,09,29,02,13,18.50
2017,09,29,02,14,18.50
2017,09,29,02,15,18.60
2017,09,29,02,16,18.60
2017,09,29,02,17,18.60
2017,09,29,02,18,18.70
2017,09,29,02,19,18.70
2017,09,29,02,20,18.70
2017,09,29,02,21,18.70
2017,09,29,02,22,18.70
2017,09,29,02,23,18.70
2017,09,29,02,24,18.70
2017,09,29,02,25,18.70
2017,09,29,02,26,18.70
2017,09,29,02,27,18.70
2017,09,29,02,28,18.70
2017,09,29,02,29,18.80
2017,09,29,02,30,18.80
2017,09,29,02,31,18.80
2017,09,29,02,32,18.70
2017,09,29,02,33,18.70
2017,09,29,02,34,18.60
2017,09,29,02,35,18.60
2017,09,29,02,36,18.50
2017,09,29,02,37,18.40
2017,09,29,02,38,18.40
2017,09,29,02,39,18.30
2017,09,29,02,40,18.20
2017,09,29,02,41,18.20
2017,09,29,02,42,18.10
2017,09,29,02,43,18.10
2017,09,29,02,44,18.00
2017,09,29,02,45,18.00
2017,09,29,02,46,17.90
2017,09,29,02,47,17.90
2017,09,29,02,48,17.90
2017,09,29,02,49,17.90
2017,09,29,02,50,17.80
2017,09,29,02,51,17.80
2017,09,29,02,52,17.80
2017,09,29,02,53,17.90
2017,09,29,02,54,17.90
2017,09,29,02,55,17.90
2017,09,29,02,56,17.90
2017,09,29,02,57,17.90
2017,09,29,02,58,17.90
2017,09,29,02,59,17.90
2017,09,29,03,00,17.90
2017,09,29,03,01,17.90
2017,09,29,03,02,17.90
2017,09,29,03,03,17.90
2017,09,29,03,04,18.00
2017,09,29,03,05,18.00
2017,09,29,03,06,18.00
2017,09,29,03,07,18.00
2017,09,29,03,08,18.10
2017,09,29,03,09,18.10
2017,09,29,03,10,18.10
2017,09,29,03,11,18.10
2017,09,29,03,12,18.20
2017,09,29,03,13,18.20
2017,09,29,03,14,18.20
2017,09,29,03,15,18.20
2017,09,29,03,16,18.20
2017,09,29,03,17,18.20
2017,09,29,03,18,18.20
2017,09,29,03,19,18.20
2017,09,29,03,20,18.20
2017,09,29,03,21,18.10
2017,09,29,03,22,18.10
2017,09,29,03,23,18.10
2017,09,29,03,24,18.00
2017,09,29,03,25,18.00
2017,09,29,03,26,18.00
2017,09,29,03,27,17.90
2017,09,29,03,28,17.90
2017,09,29,03,29,17.90
2017,09,29,03,30,17.90
2017,09,29,03,31,17.90
2017,09,29,03,32,17.90
2017,09,29,03,33,17.90
2017,09,29,03,34,17.90
2017,09,29,03,35,17.90
2017,09,29,03,36,17.90
2017,09,29,03,37,17.90
2017,09,29,03,38,17.90
2017,09,29,03,39,17.90
2017,09,29,03,40,17.90
2017,09,29,03,41,17.90
2017,09,29,03,42,17.90
2017,09,29,03,43,17.80
2017,09,29,03,44,17.80
2017,09,29,03,45,17.80
2017,09,29,03,46,17.80
2017,09,29,03,47,17.70
2017,09,29,03,48,17.70
2017,09,29,03,49,17.60
2017,09,29,03,50,17.60
2017,09,29,03,51,17.60
2017,09,29,03,52,17.50
2017,09,29,03,53,17.50
2017,09,29,03,54,17.50
2017,09,29,03,55,17.40
2017,09,29,03,56,17.40
2017,09,29,03,57,17.40
2017,09,29,03,58,17.40
2017,09,29,03,59,17.30
2017,09,29,04,00,17.30
2017,09,29,04,01,17.20
2017,09,29,04,02,17.20
2017,09,29,04,03,17.10
2017,09,29,04,04,17.00
2017,09,29,04,05,16.90
2017,09,29,04,06,16.80
2017,09,29,04,07,16.80
2017,09,29,04,08,16.70
2017,09,29,04,09,16.60
2017,09,29,04,10,16.60
2017,09,29,04,11,16.50
2017,09,29,04,12,16.40
2017,09,29,04,13,16.30
2017,09,29,04,14,16.30
2017,09,29,04,15,16.20
2017,09,29,04,16,16.10
2017,09,29,04,17,16.10
2017,09,29,04,18,16.00
2017,09,29,04,19,15.90
2017,09,29,04,20,15.90
2017,09,29,04,21,15.80
2017,09,29,04,22,15.80
2017,09,29,04,23,15.80
2017,09,29,04,24,15.80
2017,09,29,04,25,15.70
2017,09,29,04,26,15.70
2017,09,29,04,27,15.60
2017,09,29,04,28,15.60
2017,09,29,04,29,15.60
2017,09,29,04,30,15.50
2017,09,29,04,31,15.50
2017,09,29,04,32,15.50
2017,09,29,04,33,15.50
2017,09,29,04,34,15.40
2017,09,29,04,35,15.40
2017,09,29,04,36,15.40
2017,09,29,04,37,15.40
2017,09,29,04,38,15.40
2017,09,29,04,39,15.40
2017,09,29,04,40,15.30
2017,09,29,04,41,15.30
2017,09,29,04,42,15.30
2017,09,29,04,43,15.30
2017,09,29,04,44,15.30
2017,09,29,04,45,15.30
2017,09,29,04,46,15.30
2017,09,29,04,47,15.20
2017,09,29,04,48,15.20
2017,09,29,04,49,15.20
2017,09,29,04,50,15.20
2017,09,29,04,51,15.20
2017,09,29,04,52,15.20
2017,09,29,04,53,15.20
2017,09,29,04,54,15.10
2017,09,29,04,55,15.10
2017,09,29,04,56,15.10
2017,09,29,04,57,15.10
2017,09,29,04,58,15.00
2017,09,29,04,59,15.00
2017,09,29,05,00,15.00
2017,09,29,05,01,15.00
2017,09,29,05,02,15.00
2017,09,29,05,03,14.90
2017,09,29,05,04,14.90
2017,09,29,05,05,14.90
2017,09,29,05,06,14.90
2017,09,29,05,07,14.90
2017,09,29,05,08,14.90
2017,09,29,05,09,14.90
2017,09,29,05,10,14.90
2017,09,29,05,11,14.90
2017,09,29,05,12,14.90
2017,09,29,05,13,14.90
2017,09,29,05,14,14.90
2017,09,29,05,15,14.90
2017,09,29,05,16,14.80
2017,09,29,05,17,14.80
2017,09,29,05,18,14.80
2017,09,29,05,19,14.80
2017,09,29,05,20,14.80
2017,09,29,05,21,14.80
2017,09,29,05,22,14.80
2017,09,29,05,23,14.80
2017,09,29,05,24,14.80
2017,09,29,05,25,14.80
2017,09,29,05,26,14.80
2017,09,29,05,27,14.80
2017,09,29,05,28,14.80
2017,09,29,05,29,14.80
2017,09,29,05,30,14.80
2017,09,29,05,31,14.80
2017,09,29,05,32,14.80
2017,09,29,05,33,14.80
2017,09,29,05,34,14.80
2017,09,29,05,35,14.80
2017,09,29,05,36,14.80
2017,09,29,05,37,14.80
2017,09,29,05,38,14.70
2017,09,29,05,39,14.70
2017,09,29,05,40,14.70
2017,09,29,05,41,14.70
2017,09,29,05,42,14.70
2017,09,29,05,43,14.70
2017,09,29,05,44,14.70
2017,09,29,05,45,14.70
2017,09,29,05,46,14.70
2017,09,29,05,47,14.70
2017,09,29,05,48,14.70
2017,09,29,05,49,14.70
2017,09,29,05,50,14.70
2017,09,29,05,51,14.70
2017,09,29,05,52,14.70
2017,09,29,05,53,14.70
2017,09,29,05,54,14.70
2017,09,29,05,55,14.70
2017,09,29,05,56,14.70
2017,09,29,05,57,14.70
2017,09,29,05,58,14.70
2017,09,29,05,59,14.70
2017,09,29,06,00,14.70
2017,09,29,06,01,14.70
2017,09,29,06,02,14.70
2017,09,29,06,03,14.70
2017,09,29,06,04,14.70
2017,09,29,06,05,14.70
2017,09,29,06,06,14.70
2017,09,29,06,07,14.70
2017,09,29,06,08,14.70
2017,09,29,06,09,14.70
2017,09,29,06,10,14.70
2017,09,29,06,11,14.70
2017,09,29,06,12,14.70
2017,09,29,06,13,14.70
2017,09,29,06,14,14.70
2017,09,29,06,15,14.70
2017,09,29,06,16,14.70
2017,09,29,06,17,14.70
2017,09,29,06,18,14.80
2017,09,29,06,19,14.80
2017,09,29,06,20,14.80
2017,09,29,06,21,14.80
2017,09,29,06,22,14.80
2017,09,29,06,23,14.80
2017,09,29,06,24,14.80
2017,09,29,06,25,14.80
2017,09,29,06,26,14.80
2017,09,29,06,27,14.80
2017,09,29,06,28,14.80
2017,09,29,06,29,14.80
2017,09,29,06,30,14.80
2017,09,29,06,31,14.80
2017,09,29,06,32,14.80
2017,09,29,06,33,14.90
2017,09,29,06,34,14.90
2017,09,29,06,35,14.90
2017,09,29,06,36,14.90
2017,09,29,06,37,14.90
2017,09,29,06,38,14.90
2017,09,29,06,39,14.90
2017,09,29,06,40,14.90
2017,09,29,06,41,14.90
2017,09,29,06,42,14.90
2017,09,29,06,43,14.90
2017,09,29,06,44,14.90
2017,09,29,06,45,14.90
2017,09,29,06,46,14.90
2017,09,29,06,47,14.90
2017,09,29,06,48,14.90
2017,09,29,06,49,14.90
2017,09,29,06,50,14.90
2017,09,29,06,51,15.00
2017,09,29,06,52,15.00
2017,09,29,06,53,15.00
2017,09,29,06,54,15.00
2017,09,29,06,55,15.00
2017,09,29,06,56,15.00
2017,09,29,06,57,15.00
2017,09,29,06,58,15.10
2017,09,29,06,59,15.10
2017,09,29,07,00,15.10
2017,09,29,07,01,15.10
2017,09,29,07,02,15.10
2017,09,29,07,03,15.10
2017,09,29,07,04,15.10
2017,09,29,07,05,15.10
2017,09,29,07,06,15.10
2017,09,29,07,07,15.10
2017,09,29,07,08,15.20
2017,09,29,07,09,15.20
2017,09,29,07,10,15.20
2017,09,29,07,11,15.20
2017,09,29,07,12,15.20
2017,09,29,07,13,15.20
2017,09,29,07,14,15.30
2017,09,29,07,15,15.30
2017,09,29,07,16,15.30
2017,09,29,07,17,15.40
2017,09,29,07,18,15.40
2017,09,29,07,19,15.40
2017,09,29,07,20,15.40
2017,09,29,07,21,15.40
2017,09,29,07,22,15.50
2017,09,29,07,23,15.50
2017,09,29,07,24,15.50
2017,09,29,07,25,15.60
2017,09,29,07,26,15.60
2017,09,29,07,27,15.60
2017,09,29,07,28,15.60
2017,09,29,07,29,15.60
2017,09,29,07,30,15.60
2017,09,29,07,31,15.60
2017,09,29,07,32,15.70
2017,09,29,07,33,15.70
2017,09,29,07,34,15.70
2017,09,29,07,35,15.70
2017,09,29,07,36,15.70
2017,09,29,07,37,15.70
2017,09,29,07,38,15.70
2017,09,29,07,39,15.70
2017,09,29,07,40,15.70
2017,09,29,07,41,15.70
2017,09,29,07,42,15.70
2017,09,29,07,43,15.70
2017,09,29,07,44,15.70
2017,09,29,07,45,15.60
2017,09,29,07,46,15.60
2017,09,29,07,47,15.60
2017,09,29,07,48,15.60
2017,09,29,07,49,15.60
2017,09,29,07,50,15.60
2017,09,29,07,51,15.60
2017,09,29,07,52,15.60
2017,09,29,07,53,15.50
2017,09,29,07,54,15.50
2017,09,29,07,55,15.50
2017,09,29,07,56,15.50
2017,09,29,07,57,15.50
2017,09,29,07,58,15.50
2017,09,29,07,59,15.40
2017,09,29,08,00,15.40
2017,09,29,08,01,15.40
2017,09,29,08,02,15.40
2017,09,29,08,03,15.40
2017,09,29,08,04,15.40
2017,09,29,08,05,15.40
2017,09,29,08,06,15.40
2017,09,29,08,07,15.40
2017,09,29,08,08,15.40
2017,09,29,08,09,15.40
2017,09,29,08,10,15.40
2017,09,29,08,11,15.40
2017,09,29,08,12,15.40
2017,09,29,08,13,15.40
2017,09,29,08,14,15.40
2017,09,29,08,15,15.40
2017,09,29,08,16,15.40
2017,09,29,08,17,15.40
2017,09,29,08,18,15.40
2017,09,29,08,19,15.40
2017,09,29,08,20,15.40
2017,09,29,08,21,15.40
2017,09,29,08,22,15.50
2017,09,29,08,23,15.50
2017,09,29,08,24,15.50
2017,09,29,08,25,15.50
2017,09,29,08,26,15.60
2017,09,29,08,27,15.60
2017,09,29,08,28,15.60
2017,09,29,08,29,15.60
2017,09,29,08,30,15.60
2017,09,29,08,31,15.70
2017,09,29,08,32,15.70
2017,09,29,08,33,15.70
2017,09,29,08,34,15.70
2017,09,29,08,35,15.70
2017,09,29,08,36,15.70
2017,09,29,08,37,15.70
2017,09,29,08,38,15.70
2017,09,29,08,39,15.70
2017,09,29,08,40,15.70
2017,09,29,08,41,15.60
2017,09,29,08,42,15.60
2017,09,29,08,43,15.60
2017,09,29,08,44,15.60
2017,09,29,08,45,15.60
2017,09,29,08,46,15.70
2017,09,29,08,47,15.70
2017,09,29,08,48,15.70
2017,09,29,08,49,15.70
2017,09,29,08,50,15.70
2017,09,29,08,51,15.70
2017,09,29,08,52,15.70
2017,09,29,08,53,15.60
2017,09,29,08,54,15.60
2017,09,29,08,55,15.60
2017,09,29,08,56,15.50
2017,09,29,08,57,15.50
2017,09,29,08,58,15.50
2017,09,29,08,59,15.50
2017,09,29,09,00,15.50
2017,09,29,09,01,15.50
2017,09,29,09,02,15.40
2017,09,29,09,03,15.50
2017,09,29,09,04,15.50
2017,09,29,09,05,15.50
2017,09,29,09,06,15.50
2017,09,29,09,07,15.50
2017,09,29,09,08,15.50
2017,09,29,09,09,15.50
2017,09,29,09,10,15.50
2017,09,29,09,11,15.50
2017,09,29,09,12,15.50
2017,09,29,09,13,15.50
2017,09,29,09,14,15.40
2017,09,29,09,15,15.40
2017,09,29,09,16,15.40
2017,09,29,09,17,15.40
2017,09,29,09,18,15.40
2017,09,29,09,19,15.40
2017,09,29,09,20,15.30
2017,09,29,09,21,15.30
2017,09,29,09,22,15.30
2017,09,29,09,23,15.30
2017,09,29,09,24,15.30
2017,09,29,09,25,15.30
2017,09,29,09,26,15.30
2017,09,29,09,27,15.30
2017,09,29,09,28,15.30
2017,09,29,09,29,15.20
2017,09,29,09,30,15.20
2017,09,29,09,31,15.20
2017,09,29,09,32,15.20
2017,09,29,09,33,15.20
2017,09,29,09,34,15.20
2017,09,29,09,35,15.20
2017,09,29,09,36,15.20
2017,09,29,09,37,15.20
2017,09,29,09,38,15.20
2017,09,29,09,39,15.20
2017,09,29,09,40,15.20
2017,09,29,09,41,15.20
2017,09,29,09,42,15.20
2017,09,29,09,43,15.20
2017,09,29,09,44,15.20
2017,09,29,09,45,15.20
2017,09,29,09,46,15.20
2017,09,29,09,47,15.20
2017,09,29,09,48,15.20
2017,09,29,09,49,15.20
2017,09,29,09,50,15.20
2017,09,29,09,51,15.20
2017,09,29,09,52,15.20
2017,09,29,09,53,15.20
2017,09,29,09,54,15.20
2017,09,29,09,55,15.20
2017,09,29,09,56,15.20
2017,09,29,09,57,15.10
2017,09,29,09,58,15.20
2017,09,29,09,59,15.20
2017,09,29,10,00,15.20
2017,09,29,10,01,15.20
2017,09,29,10,02,15.20
2017,09,29,10,03,15.20
2017,09,29,10,04,15.20
2017,09,29,10,05,15.20
2017,09,29,10,06,15.20
2017,09,29,10,07,15.20
2017,09,29,10,08,15.20
2017,09,29,10,09,15.10
2017,09,29,10,10,15.10
2017,09,29,10,11,15.10
2017,09,29,10,12,15.10
2017,09,29,10,13,15.10
2017,09,29,10,14,15.10
2017,09,29,10,15,15.10
2017,09,29,10,16,15.10
2017,09,29,10,17,15.10
2017,09,29,10,18,15.00
2017,09,29,10,19,15.00
2017,09,29,10,20,15.00
2017,09,29,10,21,15.00
2017,09,29,10,22,15.00
2017,09,29,10,23,15.00
2017,09,29,10,24,15.00
2017,09,29,10,25,15.00
2017,09,29,10,26,15.00
2017,09,29,10,27,14.90
2017,09,29,10,28,14.90
2017,09,29,10,29,14.90
2017,09,29,10,30,14.90
2017,09,29,10,31,14.90
2017,09,29,10,32,14.90
2017,09,29,10,33,14.90
2017,09,29,10,34,14.90
2017,09,29,10,35,14.90
2017,09,29,10,36,14.80
2017,09,29,10,37,14.80
2017,09,29,10,38,14.80
2017,09,29,10,39,14.80
2017,09,29,10,40,14.80
2017,09,29,10,41,14.80
2017,09,29,10,42,14.80
2017,09,29,10,43,14.70
2017,09,29,10,44,14.70
2017,09,29,10,45,14.70
2017,09,29,10,46,14.70
2017,09,29,10,47,14.70
2017,09,29,10,48,14.70
2017,09,29,10,49,14.60
2017,09,29,10,50,14.60
2017,09,29,10,51,14.60
2017,09,29,10,52,14.60
2017,09,29,10,53,14.50
2017,09,29,10,54,14.50
2017,09,29,10,55,14.50
2017,09,29,10,56,14.50
2017,09,29,10,57,14.40
2017,09,29,10,58,14.40
2017,09,29,10,59,14.40
2017,09,29,11,00,14.40
2017,09,29,11,01,14.40
2017,09,29,11,02,14.40
2017,09,29,11,03,14.40
2017,09,29,11,04,14.40
2017,09,29,11,05,14.40
2017,09,29,11,06,14.40
2017,09,29,11,07,14.40
2017,09,29,11,08,14.40
2017,09,29,11,09,14.30
2017,09,29,11,10,14.30
2017,09,29,11,11,14.40
2017,09,29,11,12,14.30
2017,09,29,11,13,14.30
2017,09,29,11,14,14.30
2017,09,29,11,15,14.30
2017,09,29,11,16,14.30
2017,09,29,11,17,14.30
2017,09,29,11,18,14.30
2017,09,29,11,19,14.30
2017,09,29,11,20,14.30
2017,09,29,11,21,14.30
2017,09,29,11,22,14.30
2017,09,29,11,23,14.30
2017,09,29,11,24,14.30
2017,09,29,11,25,14.30
2017,09,29,11,26,14.20
2017,09,29,11,27,14.20
2017,09,29,11,28,14.20
2017,09,29,11,29,14.20
2017,09,29,11,30,14.20
2017,09,29,11,31,14.20
2017,09,29,11,32,14.20
2017,09,29,11,33,14.20
2017,09,29,11,34,14.20
2017,09,29,11,35,14.20
2017,09,29,11,36,14.20
2017,09,29,11,37,14.20
2017,09,29,11,38,14.20
2017,09,29,11,39,14.20
2017,09,29,11,40,14.20
2017,09,29,11,41,14.20
2017,09,29,11,42,14.20
2017,09,29,11,43,14.20
2017,09,29,11,44,14.20
2017,09,29,11,45,14.20
2017,09,29,11,46,14.20
2017,09,29,11,47,14.20
2017,09,29,11,48,14.20
2017,09,29,11,49,14.20
2017,09,29,11,50,14.20
2017,09,29,11,51,14.20
2017,09,29,11,52,14.20
2017,09,29,11,53,14.20
2017,09,29,11,54,14.20
2017,09,29,11,55,14.20
2017,09,29,11,56,14.20
2017,09,29,11,57,14.20
2017,09,29,11,58,14.20
2017,09,29,11,59,14.20
2017,09,29,12,00,14.20
2017,09,29,12,01,14.20
2017,09,29,12,02,14.30
2017,09,29,12,03,14.30
2017,09,29,12,04,14.30
2017,09,29,12,05,14.30
2017,09,29,12,06,14.30
2017,09,29,12,07,14.30
2017,09,29,12,08,14.30
2017,09,29,12,09,14.30
2017,09,29,12,10,14.30
2017,09,29,12,11,14.30
2017,09,29,12,12,14.30
2017,09,29,12,13,14.30
2017,09,29,12,14,14.30
2017,09,29,12,15,14.30
2017,09,29,12,16,14.40
2017,09,29,12,17,14.40
2017,09,29,12,18,14.40
2017,09,29,12,19,14.40
2017,09,29,12,20,14.40
2017,09,29,12,21,14.50
2017,09,29,12,22,14.50
2017,09,29,12,23,14.50
2017,09,29,12,24,14.50
2017,09,29,12,25,14.50
2017,09,29,12,26,14.50
2017,09,29,12,27,14.60
2017,09,29,12,28,14.60
2017,09,29,12,29,14.60
2017,09,29,12,30,14.60
2017,09,29,12,31,14.70
2017,09,29,12,32,14.70
2017,09,29,12,33,14.70
2017,09,29,12,34,14.70
2017,09,29,12,35,14.70
2017,09,29,12,36,14.70
2017,09,29,12,37,14.70
2017,09,29,12,38,14.70
2017,09,29,12,39,14.70
2017,09,29,12,40,14.80
2017,09,29,12,41,14.80
2017,09,29,12,42,14.80
2017,09,29,12,43,14.80
2017,09,29,12,44,14.80
2017,09,29,12,45,14.80
2017,09,29,12,46,14.80
2017,09,29,12,47,14.80
2017,09,29,12,48,14.80
2017,09,29,12,49,14.80
2017,09,29,12,50,14.80
2017,09,29,12,51,14.80
2017,09,29,12,52,14.80
2017,09,29,12,53,14.80
2017,09,29,12,54,14.80
2017,09,29,12,55,14.80
2017,09,29,12,56,14.80
2017,09,29,12,57,14.80
2017,09,29,12,58,14.90
2017,09,29,12,59,14.90
2017,09,29,13,00,14.90
2017,09,29,13,01,14.90
2017,09,29,13,02,14.90
2017,09,29,13,03,14.90
2017,09,29,13,04,14.90
2017,09,29,13,05,14.90
2017,09,29,13,06,14.90
2017,09,29,13,07,14.90
2017,09,29,13,08,14.90
2017,09,29,13,09,14.90
2017,09,29,13,10,14.80
2017,09,29,13,11,14.80
2017,09,29,13,12,14.80
2017,09,29,13,13,14.80
2017,09,29,13,14,14.80
2017,09,29,13,15,14.80
2017,09,29,13,16,14.80
2017,09,29,13,17,14.80
2017,09,29,13,18,14.80
2017,09,29,13,19,14.80
2017,09,29,13,20,14.80
2017,09,29,13,21,14.80
2017,09,29,13,22,14.80
2017,09,29,13,23,14.70
2017,09,29,13,24,14.70
2017,09,29,13,25,14.80
2017,09,29,13,26,14.70
2017,09,29,13,27,14.70
2017,09,29,13,28,14.70
2017,09,29,13,29,14.70
2017,09,29,13,30,14.70
2017,09,29,13,31,14.70
2017,09,29,13,32,14.70
2017,09,29,13,33,14.70
2017,09,29,13,34,14.80
2017,09,29,13,35,14.80
2017,09,29,13,36,14.80
2017,09,29,13,37,14.70
2017,09,29,13,38,14.70
2017,09,29,13,39,14.70
2017,09,29,13,40,14.70
2017,09,29,13,41,14.70
2017,09,29,13,42,14.70
2017,09,29,13,43,14.70
2017,09,29,13,44,14.60
2017,09,29,13,45,14.60
2017,09,29,13,46,14.60
2017,09,29,13,47,14.60
2017,09,29,13,48,14.60
2017,09,29,13,49,14.60
2017,09,29,13,50,14.60
2017,09,29,13,51,14.60
2017,09,29,13,52,14.70
2017,09,29,13,53,14.60
2017,09,29,13,54,14.60
2017,09,29,13,55,14.60
2017,09,29,13,56,14.60
2017,09,29,13,57,14.60
2017,09,29,13,58,14.70
2017,09,29,13,59,14.60
2017,09,29,14,00,14.70
2017,09,29,14,01,14.60
2017,09,29,14,02,14.60
2017,09,29,14,03,14.60
2017,09,29,14,04,14.60
2017,09,29,14,05,14.60
2017,09,29,14,06,14.60
2017,09,29,14,07,14.60
2017,09,29,14,08,14.60
2017,09,29,14,09,14.60
2017,09,29,14,10,14.60
2017,09,29,14,11,14.70
2017,09,29,14,12,14.70
2017,09,29,14,13,14.70
2017,09,29,14,14,14.70
2017,09,29,14,15,14.70
2017,09,29,14,16,14.70
2017,09,29,14,17,14.70
2017,09,29,14,18,14.70
2017,09,29,14,19,14.70
2017,09,29,14,20,14.70
2017,09,29,14,21,14.70
2017,09,29,14,22,14.70
2017,09,29,14,23,14.70
2017,09,29,14,24,14.70
2017,09,29,14,25,14.70
2017,09,29,14,26,14.80
2017,09,29,14,27,14.80
2017,09,29,14,28,14.80
2017,09,29,14,29,14.80
2017,09,29,14,30,14.80
2017,09,29,14,31,14.80
2017,09,29,14,32,14.80
2017,09,29,14,33,14.90
2017,09,29,14,34,14.90
2017,09,29,14,35,14.90
2017,09,29,14,36,15.00
2017,09,29,14,37,15.10
2017,09,29,14,38,15.10
2017,09,29,14,39,15.10
2017,09,29,14,40,15.10
2017,09,29,14,41,15.10
2017,09,29,14,42,15.00
2017,09,29,14,43,15.00
2017,09,29,14,44,15.00
2017,09,29,14,45,15.00
2017,09,29,14,46,15.00
2017,09,29,14,47,15.00
2017,09,29,14,48,15.00
2017,09,29,14,49,15.00
2017,09,29,14,50,15.00
2017,09,29,14,51,15.00
2017,09,29,14,52,15.00
2017,09,29,14,53,15.00
2017,09,29,14,54,15.00
2017,09,29,14,55,15.00
2017,09,29,14,56,15.00
2017,09,29,14,57,15.00
2017,09,29,14,58,15.00
2017,09,29,14,59,15.00
2017,09,29,15,00,15.00
2017,09,29,15,01,15.00
2017,09,29,15,02,15.00
2017,09,29,15,03,15.00
2017,09,29,15,04,15.00
2017,09,29,15,05,15.00
2017,09,29,15,06,15.00
2017,09,29,15,07,15.00
2017,09,29,15,08,15.10
2017,09,29,15,09,15.10
2017,09,29,15,10,15.10
2017,09,29,15,11,15.10
2017,09,29,15,12,15.10
2017,09,29,15,13,15.10
2017,09,29,15,14,15.10
2017,09,29,15,15,15.10
2017,09,29,15,16,15.10
2017,09,29,15,17,15.10
2017,09,29,15,18,15.10
2017,09,29,15,19,15.10
2017,09,29,15,20,15.10
2017,09,29,15,21,15.10
2017,09,29,15,22,15.10
2017,09,29,15,23,15.10
2017,09,29,15,24,15.10
2017,09,29,15,25,15.00
2017,09,29,15,26,14.90
2017,09,29,15,27,14.80
2017,09,29,15,28,14.70
2017,09,29,15,29,14.60
2017,09,29,15,30,14.50
2017,09,29,15,31,14.40
2017,09,29,15,32,14.30
2017,09,29,15,33,14.20
2017,09,29,15,34,14.10
2017,09,29,15,35,14.00
2017,09,29,15,36,13.90
2017,09,29,15,37,13.80
2017,09,29,15,38,13.70
2017,09,29,15,39,13.60
2017,09,29,15,40,13.60
2017,09,29,15,41,13.50
2017,09,29,15,42,13.50
2017,09,29,15,43,13.50
2017,09,29,15,44,13.40
2017,09,29,15,45,13.40
2017,09,29,15,46,13.40
2017,09,29,15,47,13.40
2017,09,29,15,48,13.40
2017,09,29,15,49,13.30
2017,09,29,15,50,13.30
2017,09,29,15,51,13.20
2017,09,29,15,52,13.20
2017,09,29,15,53,13.10
2017,09,29,15,54,13.10
2017,09,29,15,55,13.10
2017,09,29,15,56,13.10
2017,09,29,15,57,13.00
2017,09,29,15,58,13.00
2017,09,29,15,59,13.00
2017,09,29,16,00,13.00
2017,09,29,16,01,13.00
2017,09,29,16,02,12.90
2017,09,29,16,03,12.90
2017,09,29,16,04,12.90
2017,09,29,16,05,12.80
2017,09,29,16,06,12.80
2017,09,29,16,07,12.80
2017,09,29,16,08,12.70
2017,09,29,16,09,12.70
2017,09,29,16,10,12.70
2017,09,29,16,11,12.70
2017,09,29,16,12,12.70
2017,09,29,16,13,12.70
2017,09,29,16,14,12.70
2017,09,29,16,15,12.70
2017,09,29,16,16,12.70
2017,09,29,16,17,12.70
2017,09,29,16,18,12.70
2017,09,29,16,19,12.70
2017,09,29,16,20,12.70
2017,09,29,16,21,12.70
2017,09,29,16,22,12.70
2017,09,29,16,23,12.70
2017,09,29,16,24,12.70
2017,09,29,16,25,12.70
2017,09,29,16,26,12.70
2017,09,29,16,27,12.70
2017,09,29,16,28,12.70
2017,09,29,16,29,12.70
2017,09,29,16,30,12.70
2017,09,29,16,31,12.70
2017,09,29,16,32,12.70
2017,09,29,16,33,12.70
2017,09,29,16,34,12.70
2017,09,29,16,35,12.70
2017,09,29,16,36,12.70
2017,09,29,16,37,12.70
2017,09,29,16,38,12.70
2017,09,29,16,39,12.70
2017,09,29,16,40,12.70
2017,09,29,16,41,12.70
2017,09,29,16,42,12.70
2017,09,29,16,43,12.70
2017,09,29,16,44,12.70
2017,09,29,16,45,12.70
2017,09,29,16,46,12.80
2017,09,29,16,47,12.80
2017,09,29,16,48,12.80
2017,09,29,16,49,12.80
2017,09,29,16,50,12.80
2017,09,29,16,51,12.80
2017,09,29,16,52,12.80
2017,09,29,16,53,12.80
2017,09,29,16,54,12.80
2017,09,29,16,55,12.80
2017,09,29,16,56,12.80
2017,09,29,16,57,12.80
2017,09,29,16,58,12.80
2017,09,29,16,59,12.80
2017,09,29,17,00,12.80
2017,09,29,17,01,12.80
2017,09,29,17,02,12.80
2017,09,29,17,03,12.80
2017,09,29,17,04,12.80
2017,09,29,17,05,12.80
2017,09,29,17,06,12.80
2017,09,29,17,07,12.80
2017,09,29,17,08,12.80
2017,09,29,17,09,12.80
2017,09,29,17,10,12.80
2017,09,29,17,11,12.80
2017,09,29,17,12,12.80
2017,09,29,17,13,12.90
2017,09,29,17,14,12.90
2017,09,29,17,15,12.90
2017,09,29,17,16,12.90
2017,09,29,17,17,12.90
2017,09,29,17,18,12.90
2017,09,29,17,19,12.90